Change the Weather History Date:

Wednesday, July 17, 2013

  Actual Average (KSYR) Record (KSYR)
Temperature  
Mean Temperature 78 °F 72 °F  
Max Temperature 91 °F 82 °F 101 °F (2012)
Min Temperature 66 °F 61 °F 46 °F (1946)
Degree Days  
Heating Degree Days 0 0  
Month to date heating degree days 2  
Since 1 June heating degree days 63  
Since 1 July heating degree days 2  
Cooling Degree Days 13 7  
Month to date cooling degree days 111  
Year to date cooling degree days 254  
Since 1 June cooling degree days 224  
Growing Degree Days 28 (Base 50)    
Moisture  
Dew Point 72 °F    
Average Humidity 77    
Maximum Humidity 97    
Minimum Humidity 57    
Precipitation  
Precipitation 0.00 in 0.13 in 0.88 in (1914)
Month to date precipitation 2.08  
Year to date precipitation 19.32  
Snow  
Snow 0.00 in 0.00 in 0.00 in (2002)
Month to date snowfall 0.0  
Since 1 June snowfall 0.0  
Since 1 July snowfall 0.0  
Snow Depth -    
Sea Level Pressure  
Sea Level Pressure 30.15 in    
Wind  
Wind Speed 3 mph (WSW)    
Max Wind Speed 9 mph    
Max Gust Speed -    
Visibility 8 miles    
Events      
T = Trace of Precipitation, MM = Missing Value Source: NWS Daily Summary

Daily Weather History Graph

Daily Weather History Graph

Search for Another Location

Airport or City:

Trip Planner

Search our weather history database for the weather conditions in past years. The results will help you decide how hot, cold, wet, or windy it might be!

Date:

Astronomy

Jul. 17, 2013 Rise Set
Actual Time 5:40 AM EDT 8:42 PM EDT
Civil Twilight 5:06 AM EDT 9:16 PM EDT
Nautical Twilight 4:22 AM EDT 9:59 PM EDT
Astronomical Twilight 3:31 AM EDT 10:51 PM EDT
Moon 3:26 PM EDT (7/17) 12:49 AM EDT (7/17)
Length of Visible Light 16h 09m
Length of Day
15h 01m
Waxing Gibbous, 67% of the Moon is Illuminated
Jul 17
Waxing Gibbous
Jul 22
Full
Jul 29
Last Quarter
Aug 6
New
Aug 14
First Quarter

Hourly Weather History & Observations

Time (EDT) Temp. Heat Index Dew Point Humidity Pressure Visibility Wind Dir Wind Speed Gust Speed Precip Events Conditions
12:54 AM 66.9 °F - 64.9 °F 93% 30.21 in 4.0 mi Calm Calm - N/A   Clear
1:54 AM 66.0 °F - 64.0 °F 93% 30.20 in 4.0 mi SSE 3.5 mph - N/A   Clear
2:54 AM 68.0 °F - 64.9 °F 90% 30.19 in 6.0 mi Calm Calm - N/A   Clear
3:54 AM 66.9 °F - 64.9 °F 93% 30.20 in 5.0 mi Calm Calm - N/A   Clear
4:54 AM 68.0 °F - 66.0 °F 93% 30.20 in 5.0 mi Calm Calm - N/A   Clear
5:54 AM 66.9 °F - 66.0 °F 97% 30.21 in 2.0 mi Calm Calm - N/A   Clear
6:11 AM 69.8 °F - 66.2 °F 88% 30.22 in 3.0 mi South 3.5 mph - N/A   Clear
6:54 AM 72.0 °F - 69.1 °F 91% 30.22 in 5.0 mi Calm Calm - N/A   Clear
7:54 AM 75.9 °F - 70.0 °F 82% 30.22 in 7.0 mi SSW 3.5 mph - N/A   Partly Cloudy
8:54 AM 79.0 °F - 72.0 °F 79% 30.21 in 9.0 mi SW 5.8 mph - N/A   Partly Cloudy
9:54 AM 82.0 °F 87.9 °F 73.9 °F 76% 30.21 in 9.0 mi WSW 4.6 mph - N/A   Clear
10:54 AM 84.0 °F 91.2 °F 73.9 °F 72% 30.19 in 9.0 mi Calm Calm - N/A   Clear
11:50 AM 87.8 °F 97.6 °F 75.2 °F 66% 30.19 in 8.0 mi SW 4.6 mph - N/A   Mostly Cloudy
11:54 AM 87.1 °F 98.8 °F 77.0 °F 72% 30.19 in 8.0 mi WSW 5.8 mph - N/A   Mostly Cloudy
12:24 PM 87.8 °F 97.6 °F 75.2 °F 66% 30.18 in 8.0 mi Variable 5.8 mph - N/A   Scattered Clouds
12:54 PM 88.0 °F 98.5 °F 75.9 °F 67% 30.17 in 8.0 mi WSW 5.8 mph - N/A   Scattered Clouds
1:54 PM 90.0 °F 100.2 °F 75.0 °F 61% 30.14 in 9.0 mi WSW 6.9 mph - N/A   Partly Cloudy
2:54 PM 90.0 °F 99.0 °F 73.9 °F 59% 30.12 in 10.0 mi West 8.1 mph - N/A   Partly Cloudy
3:54 PM 90.0 °F 97.9 °F 73.0 °F 57% 30.10 in 10.0 mi Variable 4.6 mph - N/A   Partly Cloudy
4:54 PM 90.0 °F 100.2 °F 75.0 °F 61% 30.07 in 10.0 mi SW 9.2 mph - N/A   Scattered Clouds
5:54 PM 90.0 °F 101.3 °F 75.9 °F 63% 30.08 in 10.0 mi WSW 6.9 mph - N/A   Clear
6:54 PM 88.0 °F 98.5 °F 75.9 °F 67% 30.06 in 10.0 mi WNW 5.8 mph - N/A   Clear
7:54 PM 84.9 °F 93.3 °F 75.0 °F 72% 30.06 in 10.0 mi West 5.8 mph - N/A   Clear
8:54 PM 82.0 °F 87.9 °F 73.9 °F 76% 30.06 in 10.0 mi SW 3.5 mph - N/A   Clear
9:54 PM 81.0 °F 86.7 °F 75.0 °F 82% 30.06 in 9.0 mi WSW 3.5 mph - N/A   Clear
10:54 PM 80.1 °F 84.5 °F 73.9 °F 81% 30.06 in 10.0 mi West 6.9 mph - N/A   Clear
11:54 PM 81.0 °F 85.8 °F 73.0 °F 77% 30.06 in 10.0 mi WNW 8.1 mph - N/A   Clear